Orbital Elements at Epoch 2459000.5 (2020-May-31.0) TDB
Reference: JPL 7 (heliocentric ecliptic J2000)
Element | Value | Uncertainty (1-sigma) | Units |
e | .1164896365555515 | 1.1351e-07 | |
a | 3.110442562903934 | 4.1978e-08 | au |
q | 2.748108239224337 | 3.3761e-07 | au |
i | 2.352571324828094 | 7.384e-06 | deg |
node | 78.80964230498017 | 0.00024583 | deg |
peri | 73.05828989463943 | 0.00024984 | deg |
M | 112.2619879465692 | 3.927e-05 | deg |
tp | 2458375.669912835281 (2018-Sep-14.16991284) | 0.0002184 | TDB |
period | 2003.695422589149 5.49 | 4.0562e-05 1.111e-07 | d yr |
n | .1796680253602679 | 3.6372e-09 | deg/d |
Q | 3.472776886583531 | 4.6868e-08 | au |
|
| | Orbit Determination Parameters
Additional Information
|